Regional Weather Roundup
Issued by NWS Sterling, VA

Home | Current Version | Previous Version | Graphics & Text | Print | Product List | Glossary On
Versions: 1 2 3 4 5 6 7 8 9 10 11 12 13 14 15 16 17 18 19 20 21 22 23 24 25 26 27 28 29 30 31 32 33 34 35 36 37 38 39 40 41 42 43 44 45 46 47 48 49 50
356
ASUS41 KLWX 241410
RWRLWX

REGIONAL WEATHER ROUNDUP
NATIONAL WEATHER SERVICE BALTIMORE MD/WASHINGTON DC
1000 AM EDT SUN JUL 24 2016

Note: "FAIR" indicates few or no clouds below 12,000 feet
with no significant weather and/or obstructions to visibility.
 TC=TEMPERATURE CELSIUS

 * =Non NWS site. Station does not report precipitation (e.g. rain,
    snow, etc.), thunder, or fog.

DCZ001-MDZ009-015-VAZ040>042-051-053>054-241500-
WASHINGTON METRO

CITY           SKY/WX    TMP DP  RH WIND       PRES   REMARKS
WASHINGTON NAT FAIR      88  67  49 NE6       30.00S HX  91
DULLES         FAIR      86  64  47 E8        30.01S
ANDREWS AFB    SUNNY     86  67  53 E7        30.00R
FT BELVOIR     FAIR      88  65  46 VRB3      30.00S HX  90
QUANTICO       PTSUNNY   87  69  54 E5        30.00S HX  91
COLLEGE PARK*  FAIR      84  66  54 CALM      29.99F
LEESBURG*      FAIR      88  66  48 E3        30.02F HX  90
MANASSAS*      SUNNY     88  66  48 E6        30.01S HX  90
GAITHERSBURG*  SUNNY     84  66  54 CALM      30.05S

$$

MDZ006>007-011-014-241500-
BALTIMORE METRO

CITY           SKY/WX    TMP DP  RH WIND       PRES   REMARKS
BWI AIRPORT    MOSUNNY   87  63  44 E6        29.99F
MD SCIENCE CTR   N/A     90  59  35 MISG      29.99S
MARTIN STATE   MOSUNNY   88  70  55 CALM      30.01R HX  92
ANNAPOLIS      SUNNY     86  70  58 E3        29.98F HX  90
FORT MEADE*    SUNNY     84  66  54 E3        30.02F

$$

MDZ012-015-019>023-241500-
MARYLAND EASTERN SHORE

CITY           SKY/WX    TMP DP  RH WIND       PRES   REMARKS
OCEAN CITY     SUNNY     84  68  58 NE10      29.97F
SALISBURY      SUNNY     87  70  56 E6        29.98R HX  92
BAY BRIDGE AP* SUNNY     86  68  54 E3        29.99S
CAMBRIDGE*     SUNNY     86  66  51 E6        29.98R
EASTON*        SUNNY     86  72  62 E5        30.03R HX  92

$$

MDZ017>025-241500-
SOUTHERN MARYLAND

CITY           SKY/WX    TMP DP  RH WIND       PRES   REMARKS
PATUXENT RIVER PTSUNNY   86  69  56 E6        29.98S HX  90
ST INIGOES     SUNNY     88  74  63 NE5       29.98R HX  96
LEONARDTOWN*   SUNNY     86  64  48 E6        30.01R

$$

MDZ003>005-241500-
NORTH CENTRAL MARYLAND

CITY           SKY/WX    TMP DP  RH WIND       PRES   REMARKS
FREDERICK*     SUNNY     84  64  51 CALM      30.04F
HAGERSTOWN APT SUNNY     84  64  50 CALM      30.02F

$$

MDZ501>502-241500-
WESTERN MARYLAND

CITY           SKY/WX    TMP DP  RH WIND       PRES   REMARKS
OAKLAND*       MOSUNNY   77  70  78 W5        30.15R
CUMBERLAND*    MOSUNNY   81  72  74 CALM      30.07S

$$

VAZ025>031-241500-
SHENANDOAH VALLEY

CITY           SKY/WX    TMP DP  RH WIND       PRES   REMARKS
WINCHESTER*    PTSUNNY   84  68  58 SE3       30.03S
FRONT ROYAL*   FAIR      82  72  69 CALM      30.03S
LURAY*         FAIR      81  73  78 CALM      30.04F
NEW MARKET*    FAIR     N/A N/A N/A CALM      30.03S
STAUNTON*      FAIR      80  71  73 CALM      30.08S
WAYNESBORO*    FAIR      83  71  67 CALM      30.07F

$$

WVZ021-048>050-054>055-241500-
EASTERN WEST VIRGINIA PANHANDLE

CITY           SKY/WX    TMP DP  RH WIND       PRES   REMARKS
MARTINSBURG    FAIR      84  68  58 CALM      30.02S
PETERSBURG*    FAIR      83  72  69 CALM      30.04F

$$

VAZ036>039-050-241500-
CENTRAL FOOTHILLS

CITY           SKY/WX    TMP DP  RH WIND       PRES   REMARKS
CHARLOTTESVILL FAIR      88  70  55 E5        30.02F HX  93
CULPEPER*      FAIR      87  70  58 CALM      30.01F HX  91
ORANGE*        NOT AVBL
GORDONSVILLE*  FAIR      87  71  58 NE5       30.01S HX  92
WARRENTON*     FAIR      87  64  46 NE6       30.01F

$$

VAZ055>057-241500-
NORTH AND CENTRAL PIEDMONT

CITY           SKY/WX    TMP DP  RH WIND       PRES   REMARKS
FREDERICKSBRG* FAIR      86  72  63 CALM      29.99S HX  92
STAFFORD*      FAIR      87  68  53 E5        30.04S HX  90

$$

NCZ024-NYZ072-PAZ021-071-VAZ022-071-241500-
OTHER REGIONAL OBSERVATIONS

CITY           SKY/WX    TMP DP  RH WIND       PRES   REMARKS
NEW YORK CITY  MOSUNNY   81  62  52 W7        30.02R
PHILADELPHIA   MOSUNNY   87  61  41 VRB5      30.00R
PITTSBURGH     MOSUNNY   80  67  64 SE7       30.04S
ROANOKE        FAIR      84  71  65 VRB3      30.08S
RICHMOND       PTSUNNY   88  74  63 N3        29.99S HX  96
RALEIGH        PTSUNNY   85  75  72 SW6       30.03S HX  93

$$

ANZ530>537-241500-
MARINE OBSERVATIONS

STATION/POSITION TIME  TEMP    WIND        PRES
                       AIR SEA DIR/SP/G
                 (UTC) (F)     (DEG/KT/KT) (MB)
THOMAS PT LIGHT  1400   81 82   10/  4/  5 1017.0R
BALT KEY BRIDGE  1348   82     170/  2/  3 1015.6S
COVE POINT       1348   85      30/  2/  3 1016.0R
LEWISETTA        1348   85 86   50/  3/  4 1014.9R
SOLOMONS ISLAND  1342   84 85   80/  5/  6   N/A
PINEY POINT      1348          140/  3/  3   N/A

$$





USA.gov is the U.S. government's official web portal to all federal, state and local government web resources and services.